Regional Weather Roundup
Issued by NWS Kansas City/Pleasant Hill, MO

Home | Current Version | Previous Version | Graphics & Text | Print | Product List | Glossary Off
Versions: 1 2 3 4 5 6 7 8 9 10 11 12 13 14 15 16 17 18 19 20 21 22 23 24 25 26 27 28 29 30 31 32 33 34 35 36 37 38 39 40 41 42 43 44 45 46 47 48 49 50

000
ASUS43 KEAX 012311
RWREAX

WEATHER ROUNDUP FOR EASTERN KANSAS AND NORTHWEST MISSOURI
NATIONAL WEATHER SERVICE KANSAS CITY/PLEASANT HILL MO
600 PM CDT WED OCT 01 2014

KSZ040-057-103>105-MOZ028-029-037-043-020000-
...KANSAS CITY METROPOLITAN AREA...

CITY           SKY/WX    TMP DP  RH WIND       PRES   REMARKS
K.C. INTL      PTSUNNY   75  69  81 E14       29.74R
K.C. DOWNTOWN  TSTM      71  64  78 S10G18    29.75R
LEES SUMMIT    TSTM      68  65  90 SW3       29.77R FOG
OLATHE - IXD   CLOUDY    72  65  78 S10       29.73F
OLATHE - OJC   CLOUDY    69  67  93 SE12      29.73R
LAWRENCE       PTSUNNY   81  67  62 SE8       29.71R

$$

MOZ001>008-011>017-020>025-030>033-038>040-044>046-053-054-020000-
...NORTHERN AND CENTRAL MISSOURI...

CITY           SKY/WX    TMP DP  RH WIND       PRES   REMARKS
ST. JOSEPH     MOSUNNY   77  68  73 SE12      29.73R
MOSBY          CLOUDY    72  68  88 CALM      29.75R
WHITEMAN AFB   TSTM      66  61  82 SW15      29.81R VSB 3/4
CLINTON        TSTM      70  66  88 N15       29.75R
SEDALIA        TSTM      68  65  90 E9        29.76S
WARSAW         NOT AVBL
MARSHALL       MOCLDY    68  66  94 E8        29.77F FOG
CHILLICOTHE      N/A     72  67  84 VRB3      29.76S
MOBERLY        RAIN      68  63  83 E10       29.78S
KIRKSVILLE     LGT RAIN  67  66  97 CALM      29.81R FOG

$$

MOZ041-047>049-056>058-063>065-088>090-097-020000-
...EASTERN AND SOUTHERN MISSOURI...

CITY           SKY/WX    TMP DP  RH WIND       PRES   REMARKS
ST. LOUIS INTL CLOUDY    86  62  44 S15G21    29.79S
SPIRIT OF STL  CLOUDY    82  63  52 SE3       29.78R
COLUMBIA       LGT RAIN  68  67  96 NE7       29.79S FOG
MEXICO         CLOUDY   N/A N/A N/A N6        29.82R
HANNIBAL       CLOUDY    68  64  88 E6        29.81F FOG
ROLLA          MOCLDY    83  62  49 S10       29.78R
LEBANON        CLOUDY    82  64  54 S8        29.79R
OSAGE BEACH    MOCLDY    82  64  54 S5        29.76R
SPRINGFIELD    CLOUDY    81  65  58 S12       29.77R
BRANSON        PTSUNNY   84  66  54 S8        29.81S
NEVADA         CLOUDY    82  66  57 S15G23    29.74R
JOPLIN         TSTM      76  70  82 SW8       29.75R
WEST PLAINS    MOCLDY    80  66  62 SE10      29.84F

$$

IAZ060-094-KSZ022-034>040-054-083-096-NEZ052-066-093-020000-
...KANSAS...SOUTHEAST NEBRASKA AND IOWA...

CITY           SKY/WX    TMP DP  RH WIND       PRES   REMARKS
TOPEKA         PTSUNNY   82  67  60 E8        29.69S
MANHATTAN      MOSUNNY   81  68  64 E7        29.67F
EMPORIA        SUNNY     80  69  69 SE8       29.69S
CHANUTE        MOSUNNY   78  71  79 SE9       29.70S
WICHITA        MOSUNNY   89  59  36 SW9       29.65R
OMAHA          PTSUNNY   74  62  66 E5        29.73S
LINCOLN        MOSUNNY   75  61  61 NE6       29.73S
FALLS CITY     PTSUNNY   79  66  64 E9        29.71R
LAMONI         CLEAR     70  65  84 E3        29.77S
DES MOINES     CLOUDY    71  64  78 S8        29.76S

$$




USA.gov is the U.S. government's official web portal to all federal, state and local government web resources and services.